This demonstration page uses our WeatherBlox Daily Observations layout. Learn more.

Left ArrowRight Arrow

38.83388, -104.82136

Hourly Observations for May 22, 2022

Temp ( °F °C ) Dew Point ( °F °C ) Humidity (%) Winds ( mph kmh ) Pressure ( in mb ) Visibility ( mi km ) Precip ( " mm )
12:58 am 00:58 Cloudy 31 -0.8 27 -2.7 87 87 SW 3 6 29.98 1015 10 16 0.00 0.00
1:58 am 01:58 Cloudy 35 1.5 24 -4.4 65 65 W 8 13 29.95 1014 10 16 0.00 0.00
2:58 am 02:58 Cloudy 35 1.4 25 -3.9 68 68 SSW 6 9 29.95 1014 10 16 0.00 0.00
3:31 am 03:31 Cloudy with Light Wintry Mix 34 1 27 -3 75 75 WNW 7 11 30.18 1022 10 16 0.00 0.00
3:35 am 03:35 Cloudy with Light Snow 34 1 28 -2 81 81 WNW 5 7 29.96 1015 10 16 0.00 0.00
3:58 am 03:58 Cloudy with Light Snow 34 0.9 28 -2 81 81 WNW 5 7 29.95 1014 9 14 0.00 0.00
4:24 am 04:24 Cloudy with Light Rain 34 1 27 -3 75 75 Calm 29.96 1015 9 14 0.00 0.00
4:31 am 04:31 Cloudy 36 2 27 -3 70 70 Calm 29.96 1015 10 16 0.00 0.00
4:58 am 04:58 Cloudy 34 1.2 26 -3.5 71 71 Calm 29.96 1015 10 16 0.00 0.00
5:04 am 05:04 Cloudy with Light Rain 34 1 27 -3 75 75 Calm 29.95 1014 10 16 0.00 0.00
5:51 am 05:51 Cloudy 34 1 27 -3 75 75 Calm 29.93 1013 10 16 0.00 0.00
5:58 am 05:58 Cloudy 33 0.7 26 -3.2 75 75 Calm 29.93 1013 10 16 0.00 0.00
6:19 am 06:19 Cloudy with Light Wintry Mix 32 0 28 -2 87 87 SE 3 6 29.94 1014 10 16 0.00 0.00
6:31 am 06:31 Cloudy with Light Snow 30 -1 30 -1 100 100 S 6 9 29.94 1014 10 16 0.00 0.00
6:58 am 06:58 Cloudy with Light Snow 33 0.8 28 -2.1 81 81 SSW 13 20 29.95 1014 9 14 0.00 0.00
7:58 am 07:58 Cloudy with Light Snow 31 -0.5 30 -1.1 96 96 SSE 12 19 29.98 1015 8 13 0.00 0.00
8:33 am 08:33 Cloudy with Light Snow 30 -1 30 -1 100 100 SE 12 19 29.96 1015 2 2 0.00 0.00
8:38 am 08:38 Cloudy with Snow 30 -1 30 -1 100 100 SE 12 19 29.96 1015 3 5 0.00 0.00
8:39 am 08:39 Cloudy with Heavy Snow 30 -1 30 -1 100 100 SE 12 19 29.96 1015 0 0 0.00 0.00
8:58 am 08:58 Mostly Cloudy with Heavy Snow 31 -0.7 31 -0.7 100 100 SE 13 20 29.96 1015 1 2 0.00 0.00
9:03 am 09:03 Mostly Cloudy with Heavy Snow 30 -1 30 -1 100 100 SE 13 20 29.98 1015 1 2 0.00 0.00
9:08 am 09:08 Mostly Cloudy with Heavy Snow 30 -1 30 -1 100 100 SE 10 17 29.96 1015 1 2 0.00 0.00
9:58 am 09:58 Mostly Cloudy with Heavy Snow 31 -0.7 31 -0.7 100 100 SE 14 22 29.95 1014 1 2 0.01 0.25
10:12 am 10:12 Mostly Cloudy 32 0 32 0 100 100 SSE 14 22 29.95 1014 1 2 0.00 0.00
10:19 am 10:19 Mostly Cloudy with Heavy Snow 32 0 32 0 100 100 SSE 14 22 29.96 1015 1 2 0.00 0.00
10:54 am 10:54 Mostly Cloudy with Heavy Snow 32 0 32 0 100 100 SE 14 22 29.95 1014 0 0 0.00 0.00
10:58 am 10:58 Cloudy with Heavy Snow 32 -0.1 32 -0.1 100 100 SSE 16 26 29.95 1014 0 0 0.00 0.00
10:59 am 10:59 Cloudy with Snow 32 0 32 0 100 100 SE 14 22 29.96 1015 3 5 0.00 0.00
11:01 am 11:01 Cloudy with Heavy Snow 32 0 32 0 100 100 SE 14 22 29.96 1015 0 0 0.00 0.00
11:03 am 11:03 Cloudy with Snow 32 0 32 0 100 100 SE 15 24 29.96 1015 3 5 0.00 0.00
11:08 am 11:08 Cloudy with Heavy Snow 32 0 32 0 100 100 SE 15 24 29.96 1015 0 0 0.00 0.00
11:12 am 11:12 Cloudy with Snow 32 0 32 0 100 100 SSE 15 24 29.96 1015 3 5 0.00 0.00
11:13 am 11:13 Cloudy with Heavy Snow 32 0 32 0 100 100 SE 16 26 29.96 1015 0 0 0.00 0.00
11:14 am 11:14 Cloudy 32 0 32 0 100 100 SE 17 28 29.96 1015 0 0 0.00 0.00
11:21 am 11:21 Cloudy with Heavy Snow 32 0 32 0 100 100 SSE 20 31 29.95 1014 0 0 0.00 0.00
11:31 am 11:31 Cloudy with Heavy Snow 32 0 32 0 100 100 SSE 17 28 29.95 1014 0 0 0.00 0.00
11:36 am 11:36 Cloudy with Snow 32 0 32 0 100 100 SE 16 26 29.95 1014 3 5 0.00 0.00
11:37 am 11:37 Cloudy with Light Snow 32 0 32 0 100 100 SSE 17 28 29.94 1014 3 5 0.00 0.00
11:42 am 11:42 Cloudy with Light Snow 32 0 32 0 100 100 SSE 17 28 29.95 1014 3 5 0.00 0.00
11:58 am 11:58 Cloudy with Light Snow 33 0.6 33 0.6 100 100 SSE 17 28 29.93 1014 4 6 0.00 0.00
12:58 pm 12:58 Windy with Snow Likely 33 0.7 33 0.7 100 100 S 21 33 29.91 1013 9 14 0.00 0.00
1:18 pm 13:18 Cloudy with Light Snow 34 1 34 1 100 100 S 18 30 29.88 1012 5 8 0.00 0.00
1:42 pm 13:42 Cloudy 34 1 34 1 100 100 S 20 31 29.88 1012 9 14 0.00 0.00
1:44 pm 13:44 Cloudy with Light Rain 34 1 34 1 100 100 S 18 30 29.88 1012 9 14 0.00 0.00
1:55 pm 13:55 Cloudy 36 2 36 2 100 100 S 18 30 29.86 1011 10 16 0.00 0.00
1:58 pm 13:58 Cloudy 35 1.5 35 1.5 100 100 S 18 30 29.86 1011 10 16 0.00 0.00
2:03 pm 14:03 Cloudy 36 2 36 2 100 100 S 18 30 29.86 1011 10 16 0.00 0.00
2:04 pm 14:04 Cloudy with Light Rain 36 2 36 2 100 100 S 17 28 29.86 1011 10 16 0.00 0.00
2:27 pm 14:27 Cloudy 37 3 37 3 100 100 SSW 16 26 29.87 1011 10 16 0.00 0.00
2:58 pm 14:58 Cloudy 38 3.5 31 -0.3 76 76 S 9 15 29.85 1011 10 16 0.00 0.00
3:58 pm 15:58 Mostly Cloudy 39 3.9 33 0.6 79 79 SSE 9 15 29.84 1011 10 16 0.00 0.00
4:58 pm 16:58 Cloudy 40 4.3 34 1.2 80 80 SE 9 15 29.83 1010 10 16 0.00 0.00
5:13 pm 17:13 Mostly Cloudy 39 4 34 1 81 81 SSE 8 13 29.83 1010 10 16 0.00 0.00
5:58 pm 17:58 Cloudy 41 5 35 1.5 78 78 NW 3 6 29.83 1010 10 16 0.00 0.00
6:58 pm 18:58 Cloudy 41 5.1 35 1.8 79 79 Calm 29.79 1009 10 16 0.00 0.00
7:01 pm 19:01 Cloudy with Light Rain 41 5 36 2 81 81 WNW 3 6 29.79 1009 10 16 0.00 0.00
7:58 pm 19:58 Cloudy with Light Rain 43 5.9 36 2 76 76 WSW 6 9 29.79 1009 10 16 0.02 0.51
8:22 pm 20:22 Cloudy 43 6 36 2 76 76 NW 6 9 29.80 1009 10 16 0.00 0.00
8:50 pm 20:50 Cloudy with Light Rain 39 4 36 2 87 87 NW 13 20 29.82 1010 10 16 0.00 0.00
8:58 pm 20:58 Cloudy with Light Rain 40 4.3 38 3.1 92 92 NNW 6 9 29.82 1010 10 16 0.00 0.00
9:39 pm 21:39 Cloudy 43 6 36 2 76 76 SSW 5 7 29.82 1010 10 16 0.00 0.00
9:58 pm 21:58 Cloudy 42 5.6 36 2.1 78 78 W 5 7 29.83 1010 10 16 0.00 0.00
10:58 pm 22:58 Cloudy 41 4.9 36 2.4 84 84 Calm 29.82 1010 10 16 0.00 0.00
11:38 pm 23:38 Cloudy 41 5 36 2 81 81 WNW 3 6 29.81 1009 10 16 0.00 0.00
11:58 pm 23:58 Cloudy 41 4.9 37 2.8 86 86 Calm 29.81 1009 10 16 0.00 0.00

Powered by AerisWeather